Location: Avon
(37.7514°N, 90.2235°W)
Time: 18:36:52
(UTC+00:00)

A-11 Canister half - Pass Details

Date: 09 November 2025
Orbit: 1526 x 1681 km, 47.3° (Epoch: 06 December)

Event Time Altitude Azimuth Distance (km) Brightness Sun altitude
Exits shadow 08:37:19 18° 143° (SE) 3,091 10.6 -46.9°
Drops below altitude 10° 08:39:14 10° 140° (SE) 3,686 11.1 -46.6°
Sets 08:42:17 0° 138° (SE) 4,672 11.8 -46.0°
